Header for Extended Forecast Station List Page

Search by: ID | Name | Date | Parm | Value | Avg | % Avg
Sort by: ID | Name | Date | Parm | Value | Avg | % Avg

Enter search or view all records.

Click on id for station plot
#IDNameDateParmValueAvg% Avg
0LEOI1KOOTENAI-AT LEONIA10-21-2021DISCHARGE (KAF)2000265675
1FCFM8NF FLATHEAD-NEAR COLUMBIA FALLS10-21-2021DISCHARGE (KAF)13118571
2WGCM8MF FLATHEAD-NEAR WEST GLACIER10-21-2021DISCHARGE (KAF)5316332
3CFMM8FLATHEAD-AT COLUMBIA FALLS10-21-2021DISCHARGE (KAF)88393495
4DLGM8CLARK FORK-AT DEER LODGE10-21-2021DISCHARGE (KAF)495196
5DRMM8CLARK FORK-NR DRUMMOND10-21-2021DISCHARGE (KAF)11612593
6RCCM8ROCK CREEK-NEAR CLINTON10-21-2021DISCHARGE (KAF)464699
7BONM8BLACKFOOT-NEAR BONNER10-21-2021DISCHARGE (KAF)10513379
8ABOM8CLARK FORK-ABOVE MISSOULA10-21-2021DISCHARGE (KAF)28032586
9BITM8BITTERROOT-NEAR MISSOULA10-21-2021DISCHARGE (KAF)12320759
10BELM8CLARK FORK-BELOW MISSOULA10-21-2021DISCHARGE (KAF)40353975
11STRM8ST. REGIS-NEAR ST. REGIS10-21-2021DISCHARGE (KAF)173352
12SRGM8CLARK FORK-AT ST REGIS10-21-2021DISCHARGE (KAF)51170872
13PRTI1PRIEST-NEAR PRIEST RIVER10-21-2021DISCHARGE (KAF)16524567
14SPOW1SPOKANE-AT SPOKANE10-21-2021DISCHARGE (KAF)44395946
15SATI1ST MARIES-NEAR SANTA10-21-2021DISCHARGE (KAF)153939
16CIBW1COLUMBIA-AT INTL BOUNDARY10-21-2021DISCHARGE (KAF)177152022688
17LAUW1KETTLE-AT LAURIER10-21-2021DISCHARGE (KAF)9312177
18TONW1OKANOGAN-NEAR TONASKET10-21-2021DISCHARGE (KAF)25129585
19PATW1METHOW-NEAR PATEROS10-21-2021DISCHARGE (KAF)8110477
20ARDW1ENTIAT-NEAR ARDENVOIR10-21-2021DISCHARGE (KAF)2625104
21PESW1WENATCHEE-AT PESHASTIN10-21-2021DISCHARGE (KAF)30832695
22EASW1YAKIMA-AT EASTON10-21-2021DISCHARGE (KAF)677293
23TNAW1TEANAWAY-BELOW FORKS10-21-2021DISCHARGE (KAF)264164
24UMTW1YAKIMA-AT UMTANUM10-21-2021DISCHARGE (KAF)22028078
25CLFW1NACHES-NEAR CLIFFDEL10-21-2021DISCHARGE (KAF)8811477
26NACW1NACHES-NEAR NACHES10-21-2021DISCHARGE (KAF)6614645
27PARW1YAKIMA-NEAR PARKER10-21-2021DISCHARGE (KAF)40448583
28KIOW1YAKIMA-AT KIONA10-21-2021DISCHARGE (KAF)58170682
29CHEI1FALL RIVER-NEAR CHESTER10-21-2021DISCHARGE (KAF)10511889
30ANTI1HENRYS FORK-AT ST. ANTHONY10-21-2021DISCHARGE (KAF)31636985
31TEAI1TETON-NEAR ST. ANTHONY10-21-2021DISCHARGE (KAF)9010189
32REXI1HENRYS FORK-AT REXBURG10-21-2021DISCHARGE (KAF)39642693
33JKSW4SNAKE-NEAR JACKSON10-21-2021DISCHARGE (KAF)27632984
34ALPW4SNAKE-NEAR ALPINE10-21-2021DISCHARGE (KAF)33639884
35HEII1SNAKE-NEAR HEISE10-21-2021DISCHARGE (KAF)29540573
36SIFI1SNAKE-AB EAGLE ROCK NR IDAHO FALLS10-21-2021DISCHARGE (KAF)52168676
37SHYI1SNAKE-NEAR SHELLEY10-21-2021DISCHARGE (KAF)52170474
38SNAI1SNAKE-AT BLACKFOOT10-21-2021DISCHARGE (KAF)43961072
39BFTI1SNAKE-NEAR BLACKFOOT10-21-2021DISCHARGE (KAF)45859976
40PIHI1PORTNEUF-AT POCATELLO10-21-2021DISCHARGE (KAF)374778
41MILI1SNAKE-AT MILNER10-21-2021DISCHARGE (KAF)M55M
42HOTI1BRUNEAU-NEAR HOT SPRINGS10-21-2021DISCHARGE (KAF)162468
43SWAI1SNAKE-BELOW SWAN FALLS10-21-2021DISCHARGE (KAF)1788185596
44HWRI1BIG LOST-AT HOWELL RANCH NEAR CHILLY10-21-2021DISCHARGE (KAF)122059
45HALI1BIG WOOD-AT HAILEY10-21-2021DISCHARGE (KAF)263867
46BIGI1BOISE-AT GLENWOOD BRIDGE10-21-2021DISCHARGE (KAF)536383
47PARI1BOISE-NEAR PARMA10-21-2021DISCHARGE (KAF)19820995
48EMMI1PAYETTE-NEAR EMMETT10-21-2021DISCHARGE (KAF)25627593
49WSRI1WEISER-NEAR WEISER10-21-2021DISCHARGE (KAF)518063
50WEII1SNAKE-AT WEISER10-21-2021DISCHARGE (KAF)2598272995
51WHBI1SALMON-AT WHITEBIRD10-21-2021DISCHARGE (KAF)780102776
52TRYO3GRANDE RONDE-TROY10-21-2021DISCHARGE (KAF)23029777
53ANAW1SNAKE-NEAR ANATONE10-21-2021DISCHARGE (KAF)3624444082
54ORFI1CLEARWATER-AT OROFINO10-21-2021DISCHARGE (KAF)39270156
55SPDI1CLEARWATER-AT SPALDING10-21-2021DISCHARGE (KAF)838130564
56TCHW1WALLA WALLA-NEAR TOUCHET10-21-2021DISCHARGE (KAF)10012282
57GIBO3UMATILLA-NEAR GIBBON10-21-2021DISCHARGE (KAF)3534101
58PDTO3UMATILLA-AT PENDLETON10-21-2021DISCHARGE (KAF)9680121
59MYKO3MCKAY CREEK-NEAR PILOT ROCK10-21-2021DISCHARGE (KAF)2518135
60UMAO3UMATILLA-NEAR UMATILLA10-21-2021DISCHARGE (KAF)14289159
61MONO3NF JOHN DAY-AT MONUMENT10-21-2021DISCHARGE (KAF)929795
62SERO3JOHN DAY-AT SERVICE CK10-21-2021DISCHARGE (KAF)17517799
63MODO3DESCHUTES-AT MOODY NR BIGGS10-21-2021DISCHARGE (KAF)13851332104
64PITW1KLICKITAT-NEAR PITT10-21-2021DISCHARGE (KAF)289284102
65HODO3HOOD-NEAR TUCKER BRIDGE10-21-2021DISCHARGE (KAF)250212118
66UNDW1WHITE SALMON-NEAR UNDERWOOD10-21-2021DISCHARGE (KAF)233230101
67LYDM8KOOTENAI-LIBBY DAM10-21-2021INFLOW (KAF)77892085
68HHWM8SF FLATHEAD-HUNGRY HORSE DAM10-21-2021INFLOW (KAF)14223161
69KERM8FLATHEAD-SELI’Š KSANKA QLISPE’ DAM10-21-2021INFLOW (KAF)961132273
70NOXM8CLARK FORK-NOXON RAPIDS DAM10-21-2021INFLOW (KAF)2293306875
71CABI1CLARK FORK-CABINET GORGE DAM10-21-2021INFLOW (KAF)2516344073
72ALFW1PEND OREILLE-ALBENI FALLS DAM10-21-2021INFLOW (KAF)2779383472
73COEI1COEUR D ALENE-COEUR D ALENE LAKE10-21-2021INFLOW (KAF)34776245
74LLKW1SPOKANE-AT LONGLAKE10-21-2021INFLOW (KAF)629115854
75GCDW1COLUMBIA-GRAND COULEE DAM10-21-2021INFLOW (KAF)185152128287
76CHJW1COLUMBIA-CHIEF JOSEPH DAM10-21-2021INFLOW (KAF)205662295690
77WELW1COLUMBIA-WELLS DAM10-21-2021INFLOW (KAF)208912355689
78CHDW1CHELAN-LAKE CHELAN DAM10-21-2021INFLOW (KAF)225192117
79RRHW1COLUMBIA-ROCKY REACH DAM10-21-2021INFLOW (KAF)212112394889
80WANW1COLUMBIA-WANAPUM DAM10-21-2021INFLOW (KAF)215032459187
81PRWW1COLUMBIA-PRIEST RAPIDS DAM10-21-2021INFLOW (KAF)215032466387
82KEDW1YAKIMA-KEECHELUS LAKE10-21-2021INFLOW (KAF)535596
83KADW1KACHESS-KACHESS DAM10-21-2021INFLOW (KAF)5250104
84CLUW1CLE ELUM-CLE ELUM LAKE10-21-2021INFLOW (KAF)134117114
85BUDW1BUMPING-BUMPING LAKE DAM10-21-2021INFLOW (KAF)3939100
86RILW1TIETON-RIMROCK LAKE NEAR RIMROCK10-21-2021INFLOW (KAF)427159
87IPDI1HENRYS FORK-ISLAND PARK DAM10-21-2021INFLOW (KAF)8210777
88JLKW4SNAKE-JACKSON LAKE AT DAM10-21-2021INFLOW (KAF)8211273
89PLDI1SF SNAKE-PALISADES DAM10-21-2021INFLOW (KAF)52261085
90RIDI1WILLOW CREEK-RIRIE DAM10-21-2021INFLOW (KAF)101186
91AFRI1SNAKE-AMERICAN FALLS RESERVOIR10-21-2021INFLOW (KAF)1110119593
92MACI1BIG LOST-MACKAY RESERVOIR NEAR MACKAY10-21-2021INFLOW (KAF)214152
93MAGI1BIG WOOD-MAGIC DAM10-21-2021INFLOW (KAF)122158
94LWRI1LITTLE WOOD-LITTLE WOOD DAM10-21-2021INFLOW (KAF)111390
95OWYO3OWYHEE-OWYHEE DAM10-21-2021INFLOW (KAF)688877
96ARAI1SF BOISE-ANDERSON RANCH DAM10-21-2021INFLOW (KAF)597084
97LUCI1BOISE-LUCKY PEAK DAM10-21-2021INFLOW (KAF)508261
98WRMO3MALHEUR-WARM SPRINGS DAM10-21-2021INFLOW (KAF)172084
99BERO3MALHEUR-AGENCY VALLEY DAM10-21-2021INFLOW (KAF)101662
100BULO3BULLY CREEK-BULLY CREEK DAM10-21-2021INFLOW (KAF)162908
101CSDI1NF PAYETTE-CASCADE DAM10-21-2021INFLOW (KAF)9287106
102DEDI1DEADWOOD-NEAR LOWMAN10-21-2021INFLOW (KAF)131774
103BRNI1SNAKE-BROWNLEE DAM10-21-2021INFLOW (KAF)2800286898
104DWRI1NF CLEARWATER-DWORSHAK DAM10-21-2021INFLOW (KAF)30655555
105LGDW1SNAKE-LOWER GRANITE DAM10-21-2021INFLOW (KAF)4462580777
106LGSW1SNAKE-LITTLE GOOSE DAM10-21-2021INFLOW (KAF)4462584976
107LMNW1SNAKE-LOWER MONUMENTAL DAM10-21-2021INFLOW (KAF)4514589477
108IHDW1SNAKE-ICE HARBOR DAM10-21-2021INFLOW (KAF)4514592376
109MCDW1COLUMBIA-MCNARY DAM10-21-2021INFLOW (KAF)266573165184
110JDAO3COLUMBIA-JOHN DAY DAM10-21-2021INFLOW (KAF)278963273285
111TDAO3COLUMBIA-THE DALLES DAM10-21-2021INFLOW (KAF)286253343386
112BONO3COLUMBIA-BONNEVILLE DAM10-21-2021INFLOW (KAF)294403481785
113HOPI1PEND OREILLE-PEND OREILLE LAKE NR HOPE10-21-2021LAKE ELEVATION (FT)MMM
114BFEI1KOOTENAI-AT BONNERS FERRY10-21-2021STAGE (FT)MMM
115SJMI1ST JOE-AT ST MARIES10-21-2021STAGE (FT)MMM